Snowfall_Accumulation
nan nan nan nan nan nan nan nan nan nan nan nan nan nan nan nan nan nan nan nan nan nan nan nan nan nan 0.0 0.0 0.0 0.0 nan nan 0.0 0.0 0.0 0.0 0.0 0.0 0.0 0.0 0.0 0.0 0.0 0.0 0.0 0.0 0.0
nan nan nan nan nan nan nan nan nan nan nan nan nan nan nan nan nan nan nan nan nan nan nan nan nan nan 0.0 0.0 0.0 0.0 0.0 0.0 0.0 0.0 0.0 0.0 0.0 0.0 0.0 0.0 0.0 0.0 0.0 0.0 0.0 0.0 0.0
nan nan nan nan nan nan nan nan nan nan nan nan nan nan nan nan nan nan nan nan nan nan nan nan nan 0.0 0.0 0.0 0.0 0.0 0.0 0.0 0.0 0.0 0.0 0.0 0.0 0.0 0.0 0.0 0.0 0.0 0.0 0.0 0.0 0.0 0.0
nan nan nan nan nan nan nan nan nan nan nan nan nan nan nan nan nan nan nan nan nan nan nan nan nan 0.0 0.0 0.0 0.0 0.0 0.0 0.0 0.0 0.0 0.0 0.0 0.0 0.0 0.0 0.0 0.0 0.0 0.0 0.0 0.0 0.0 0.0
nan nan nan nan nan nan nan nan nan nan nan nan nan nan nan nan nan nan nan nan nan nan nan nan 0.0 0.0 0.0 nan 0.0 0.0 0.0 0.0 0.0 0.0 0.0 0.0 0.0 0.0 0.0 0.0 0.0 0.0 0.0 0.0 0.0 0.0 0.0
nan nan nan nan nan nan nan nan nan nan nan nan nan nan nan nan nan nan nan nan nan nan 0.0 0.0 0.0 0.0 0.0 0.0 0.0 0.0 0.0 0.0 0.0 0.0 0.0 0.0 0.0 0.0 0.0 0.0 0.0 0.0 0.0 0.0 0.0 0.0 0.0
nan nan nan nan nan nan nan nan nan nan nan nan nan nan nan nan nan nan 0.0 0.0 0.0 0.0 0.0 0.0 0.0 0.0 0.0 0.0 0.0 0.0 0.0 0.0 0.0 0.0 0.0 0.0 0.0 0.0 0.0 0.0 0.0 0.0 0.0 0.0 0.0 0.0 0.0
nan nan nan nan nan nan nan nan nan nan nan nan nan nan nan nan nan nan 0.0 0.0 0.0 0.0 0.0 0.0 0.0 0.0 0.0 0.0 0.0 0.0 0.0 0.0 0.0 0.0 0.0 0.0 0.0 0.0 0.0 0.0 0.0 0.0 0.0 0.0 0.0 0.0 0.0
nan nan nan nan nan nan nan nan nan nan nan nan nan nan nan nan nan 0.0 0.0 0.0 0.0 0.0 0.0 0.0 0.0 0.0 0.0 0.0 0.0 0.0 0.0 0.0 0.0 0.0 0.0 0.0 0.0 0.0 0.0 0.0 0.0 0.0 0.0 0.0 0.0 0.0 0.0
nan nan nan nan nan nan nan nan nan nan nan nan nan nan nan nan nan 0.0 0.0 0.0 0.0 0.0 0.0 0.0 0.0 0.0 0.0 0.0 0.0 0.0 0.0 0.0 0.0 0.0 0.0 0.0 0.0 0.0 0.0 0.1 0.0 0.1 0.0 0.0 0.0 0.0 0.1
nan nan nan nan nan nan nan nan nan nan nan nan nan nan nan nan 0.0 0.0 0.0 0.0 0.0 0.0 1.2 0.0 0.0 0.0 0.0 0.0 0.0 0.0 0.0 0.0 0.0 0.0 0.1 0.1 0.0 0.0 0.1 0.1 0.0 0.5 0.0 0.0 0.0 0.0 0.0
nan nan nan nan nan nan nan nan nan nan nan nan nan nan nan 0.0 0.0 0.0 0.0 0.0 0.0 0.1 4.1 0.0 0.0 0.0 0.0 0.0 0.0 0.0 0.0 0.0 0.0 0.0 0.0 0.1 0.0 0.0 0.0 0.0 0.0 0.0 0.1 0.0 0.2 0.4 2.4
nan nan nan nan nan nan nan nan nan nan nan nan nan nan nan 0.0 0.0 0.0 0.0 0.0 0.1 0.5 0.0 0.0 0.0 0.0 0.0 0.0 0.0 0.0 0.0 0.0 0.1 0.9 0.0 0.0 0.0 0.0 0.0 0.1 0.0 0.2 0.8 2.6 0.9 2.5 1.1
nan nan nan nan nan nan nan nan nan nan nan nan nan nan nan 0.0 0.0 0.0 0.0 0.0 0.0 0.0 0.0 0.0 0.0 0.0 0.0 0.0 0.0 0.0 0.0 0.0 0.0 0.3 0.7 1.1 0.4 0.0 0.0 0.2 1.0 0.1 1.0 2.6 3.2 0.8 0.1
nan nan nan nan nan nan nan nan nan nan nan nan nan 0.0 0.0 0.0 0.0 0.0 0.0 0.2 0.2 0.0 0.0 0.0 0.0 0.0 0.0 0.0 0.0 0.0 0.0 0.0 0.2 0.1 2.4 1.5 0.3 0.0 0.0 0.0 0.0 0.2 0.3 0.3 3.4 0.4 1.0
nan nan nan nan nan nan nan nan nan nan nan nan 0.0 0.0 0.0 0.0 0.0 0.0 0.0 nan 0.0 0.0 0.0 0.0 0.0 0.0 0.1 0.0 0.0 0.0 0.0 0.0 0.0 0.3 0.1 1.9 2.5 0.0 0.0 0.0 0.0 0.4 0.3 1.9 0.9 4.9 2.8
nan nan nan nan nan nan nan nan nan nan nan nan 0.0 0.0 0.0 0.0 0.0 0.0 0.5 0.1 0.0 0.0 0.0 0.0 0.1 0.0 0.0 0.3 0.1 0.0 0.0 0.0 0.1 0.1 0.1 0.2 1.6 0.5 0.0 0.1 0.2 0.3 3.5 2.9 3.8 4.2 4.3
nan nan nan nan nan nan nan nan nan nan nan nan 0.0 0.1 0.0 0.0 0.0 0.0 0.2 0.0 nan 0.0 0.0 0.0 0.0 0.0 0.2 0.2 0.6 0.1 0.0 0.1 0.2 0.1 0.9 0.3 2.9 2.3 0.0 0.0 0.0 0.2 2.5 3.4 4.9 2.1 4.8
nan nan nan nan nan nan nan nan nan nan nan 0.0 0.0 0.0 0.0 0.0 0.3 0.0 0.0 0.0 0.0 0.0 0.0 0.0 0.1 0.0 0.3 0.2 2.7 0.0 0.4 0.0 0.0 0.4 0.9 0.6 1.0 1.8 0.1 0.1 0.2 0.6 1.1 2.6 3.0 6.3 4.4
nan nan nan nan nan nan nan nan nan nan nan 0.0 0.0 0.6 0.0 0.0 0.0 0.0 0.3 0.3 0.0 0.0 0.0 0.0 0.0 0.1 0.4 0.2 0.1 3.0 0.3 0.1 0.0 0.0 nan nan 3.6 3.1 4.3 1.2 0.5 2.0 0.6 0.4 2.4 9.3 5.7
nan nan nan nan nan nan nan nan nan nan nan 0.0 0.1 0.8 0.0 0.5 0.1 0.1 0.2 0.2 0.2 0.2 0.0 0.0 0.3 0.5 1.7 5.9 0.3 0.2 0.1 0.0 0.0 nan 0.1 0.5 4.0 0.7 1.1 2.6 1.9 2.9 1.3 0.9 1.9 2.4 4.5
nan nan nan nan nan nan nan nan nan nan nan 0.0 0.7 1.0 0.6 0.6 0.2 0.1 0.2 2.1 0.2 0.0 1.2 0.7 0.9 0.2 0.4 5.2 1.1 4.8 2.8 0.7 0.9 0.2 0.4 1.8 6.8 1.6 2.4 1.0 1.5 5.0 2.6 2.5 2.2 2.5 3.7
nan nan nan nan nan nan nan nan nan nan nan 0.0 0.0 0.0 0.1 nan 0.2 2.1 0.9 0.4 0.4 0.4 0.1 0.2 2.1 1.9 1.5 0.1 0.3 0.3 0.2 0.3 1.6 2.4 2.9 7.2 6.4 7.3 7.7 1.1 2.2 8.5 3.6 1.9 2.6 2.8 4.9
nan nan nan nan nan nan nan nan nan nan nan 0.0 0.0 0.1 3.2 3.9 1.1 0.5 0.4 0.2 0.5 0.3 5.6 1.4 0.3 2.2 0.3 0.1 0.1 0.8 1.8 2.1 3.1 4.9 2.5 7.5 5.9 7.7 13.9 6.7 21.0 4.3 3.5 3.8 4.0 3.9 4.0
nan nan nan nan nan nan nan nan nan nan nan 0.0 0.0 0.1 2.8 8.7 1.1 0.4 0.5 0.6 0.3 0.8 1.7 1.0 0.2 0.3 0.1 0.8 4.9 3.8 1.7 2.5 2.5 1.6 3.1 3.3 8.8 20.3 18.8 8.1 3.5 3.2 3.9 4.3 6.4 4.9 6.4
nan nan nan nan nan nan nan nan nan nan nan 0.0 0.0 0.0 0.7 10.1 2.7 1.1 1.9 0.8 4.5 1.9 1.3 0.3 0.2 0.2 0.3 3.2 5.6 9.2 3.7 1.7 2.7 2.0 0.5 3.5 6.9 15.4 12.6 15.5 8.7 3.7 2.3 4.4 9.1 9.1 3.6
nan nan nan nan nan nan nan nan nan nan nan 0.0 0.0 0.0 0.5 11.0 3.0 1.5 4.9 6.0 2.2 2.9 5.1 0.7 1.1 1.7 0.7 5.8 9.8 9.6 6.4 3.1 9.2 2.2 1.4 3.7 8.0 11.3 7.5 20.4 12.0 3.8 2.7 4.5 18.4 9.5 3.3
nan nan nan nan nan nan nan nan nan nan nan 0.0 0.0 0.0 0.1 4.8 3.5 2.2 1.4 2.5 2.3 3.1 8.0 3.4 7.9 4.3 5.0 8.4 7.0 3.9 7.1 5.6 3.9 3.4 3.2 3.6 8.5 8.9 11.5 15.8 17.8 1.1 2.0 6.3 9.1 4.1 4.3
nan nan nan nan nan nan nan nan nan nan nan nan 0.0 0.0 0.0 1.7 5.5 0.6 1.2 1.4 2.5 3.5 3.9 4.2 4.2 4.3 7.5 8.5 6.4 8.2 6.4 3.3 2.4 6.9 1.3 9.5 8.1 10.3 8.5 9.8 8.6 6.1 6.8 6.0 4.9 3.8 3.5
Water_Equivalent
nan nan nan nan nan nan nan nan nan nan nan nan nan nan nan nan nan nan nan nan nan nan nan nan nan nan 0.00 0.00 0.00 0.00 nan nan 0.00 0.00 0.00 0.00 0.00 0.00 0.00 0.00 0.00 0.00 0.00 0.00 0.00 0.00 0.00
nan nan nan nan nan nan nan nan nan nan nan nan nan nan nan nan nan nan nan nan nan nan nan nan nan nan 0.00 0.00 0.00 0.00 0.00 0.00 0.00 0.00 0.00 0.00 0.00 0.00 0.00 0.00 0.00 0.00 0.00 0.00 0.00 0.00 0.00
nan nan nan nan nan nan nan nan nan nan nan nan nan nan nan nan nan nan nan nan nan nan nan nan nan 0.00 0.00 0.00 0.00 0.00 0.00 0.00 0.00 0.00 0.00 0.00 0.00 0.00 0.00 0.00 0.00 0.00 0.00 0.00 0.00 0.00 0.00
nan nan nan nan nan nan nan nan nan nan nan nan nan nan nan nan nan nan nan nan nan nan nan nan nan 0.00 0.00 0.00 0.00 0.00 0.00 0.00 0.00 0.00 0.00 0.00 0.00 0.00 0.00 0.00 0.00 0.00 0.00 0.00 0.00 0.00 0.00
nan nan nan nan nan nan nan nan nan nan nan nan nan nan nan nan nan nan nan nan nan nan nan nan 0.00 0.00 0.00 nan 0.00 0.00 0.00 0.00 0.00 0.00 0.00 0.00 0.00 0.00 0.00 0.00 0.00 0.00 0.00 0.00 0.00 0.00 0.00
nan nan nan nan nan nan nan nan nan nan nan nan nan nan nan nan nan nan nan nan nan nan 0.00 0.00 0.00 0.00 0.00 0.00 0.00 0.00 0.00 0.00 0.00 0.00 0.00 0.00 0.00 0.00 0.00 0.00 0.00 0.00 0.00 0.00 0.00 0.00 0.00
nan nan nan nan nan nan nan nan nan nan nan nan nan nan nan nan nan nan 0.00 0.00 0.00 0.00 0.00 0.00 0.00 0.00 0.00 0.00 0.00 0.00 0.00 0.00 0.00 0.00 0.00 0.00 0.00 0.00 0.00 0.00 0.00 0.00 0.00 0.00 0.00 0.00 0.00
nan nan nan nan nan nan nan nan nan nan nan nan nan nan nan nan nan nan 0.00 0.00 0.00 0.00 0.00 0.00 0.00 0.00 0.00 0.00 0.00 0.00 0.00 0.00 0.00 0.00 0.00 0.00 0.00 0.00 0.00 0.00 0.00 0.00 0.00 0.00 0.00 0.00 0.00
nan nan nan nan nan nan nan nan nan nan nan nan nan nan nan nan nan 0.00 0.00 0.00 0.00 0.00 0.00 0.00 0.00 0.00 0.00 0.00 0.00 0.00 0.00 0.00 0.00 0.00 0.00 0.00 0.00 0.00 0.00 0.00 0.00 0.00 0.00 0.00 0.00 0.00 0.00
nan nan nan nan nan nan nan nan nan nan nan nan nan nan nan nan nan 0.00 0.00 0.00 0.00 0.00 0.00 0.00 0.00 0.00 0.00 0.00 0.00 0.00 0.00 0.00 0.00 0.00 0.00 0.00 0.00 0.00 0.01 0.02 0.00 0.02 0.00 0.00 0.00 0.00 0.02
nan nan nan nan nan nan nan nan nan nan nan nan nan nan nan nan 0.00 0.00 0.00 0.00 0.00 0.00 0.42 0.00 0.00 0.00 0.00 0.00 0.00 0.00 0.00 0.00 0.00 0.00 0.01 0.02 0.00 0.00 0.02 0.02 0.00 0.07 0.00 0.00 0.00 0.00 0.02
nan nan nan nan nan nan nan nan nan nan nan nan nan nan nan 0.00 0.00 0.00 0.00 0.00 0.00 0.05 1.40 0.00 0.00 0.00 0.00 0.00 0.00 0.00 0.00 0.00 0.00 0.00 0.00 0.02 0.00 0.00 0.00 0.00 0.00 0.01 0.01 0.00 0.03 0.05 0.32
nan nan nan nan nan nan nan nan nan nan nan nan nan nan nan 0.00 0.00 0.00 0.00 0.00 0.03 0.18 0.00 0.00 0.01 0.00 0.00 0.00 0.00 0.00 0.00 0.00 0.02 0.23 0.00 0.00 0.00 0.00 0.00 0.01 0.00 0.02 0.11 0.40 0.13 0.38 0.13
nan nan nan nan nan nan nan nan nan nan nan nan nan nan nan 0.00 0.00 0.00 0.00 0.00 0.01 0.00 0.00 0.00 0.00 0.00 0.00 0.00 0.00 0.00 0.00 0.00 0.00 0.05 0.10 0.22 0.16 0.00 0.00 0.04 0.14 0.01 0.13 0.33 0.27 0.16 0.02
nan nan nan nan nan nan nan nan nan nan nan nan nan 0.00 0.00 0.00 0.00 0.00 0.00 0.07 0.07 0.00 0.00 0.00 0.00 0.00 0.00 0.00 0.00 0.00 0.00 0.00 0.02 0.02 0.28 0.18 0.04 0.00 0.00 0.00 0.00 0.02 0.05 0.05 0.37 0.05 0.15
nan nan nan nan nan nan nan nan nan nan nan nan 0.00 0.00 0.00 0.00 0.00 0.00 0.00 nan 0.00 0.00 0.00 0.00 0.00 0.00 0.01 0.00 0.00 0.00 0.00 0.00 0.00 0.04 0.04 0.25 0.26 0.00 0.00 0.00 0.00 0.06 0.05 0.24 0.13 0.48 0.23
nan nan nan nan nan nan nan nan nan nan nan nan 0.00 0.00 0.00 0.00 0.00 0.00 0.11 0.03 0.00 0.00 0.00 0.00 0.01 0.01 0.00 0.03 0.01 0.00 0.00 0.00 0.02 0.01 0.01 0.03 0.19 0.06 0.00 0.01 0.04 0.05 0.48 0.38 0.55 0.57 0.45
nan nan nan nan nan nan nan nan nan nan nan nan 0.00 0.04 0.00 0.00 0.00 0.01 0.07 0.00 nan 0.00 0.00 0.00 0.00 0.01 0.03 0.02 0.08 0.01 0.00 0.01 0.04 0.02 0.13 0.05 0.39 0.30 0.00 0.00 0.00 0.03 0.32 0.44 0.52 0.21 0.49
nan nan nan nan nan nan nan nan nan nan nan 0.00 0.01 0.00 0.00 0.00 0.08 0.01 0.00 0.00 0.00 0.00 0.00 0.00 0.01 0.00 0.04 0.02 0.33 0.01 0.06 0.01 0.00 0.06 0.12 0.09 0.13 0.19 0.02 0.02 0.02 0.08 0.16 0.37 0.42 0.83 0.48
nan nan nan nan nan nan nan nan nan nan nan 0.00 0.01 0.11 0.00 0.00 0.00 0.01 0.05 0.05 0.00 0.00 0.00 0.00 0.00 0.01 0.07 0.04 0.01 0.42 0.05 0.02 0.00 0.00 nan nan 0.50 0.36 0.46 0.13 0.07 0.24 0.07 0.06 0.29 1.07 0.54
nan nan nan nan nan nan nan nan nan nan nan 0.00 0.03 0.15 0.00 0.15 0.03 0.02 0.05 0.06 0.04 0.05 0.00 0.00 0.05 0.07 0.21 0.75 0.06 0.04 0.01 0.00 0.00 nan 0.02 0.08 0.48 0.09 0.15 0.28 0.18 0.25 0.13 0.10 0.18 0.17 0.39
nan nan nan nan nan nan nan nan nan nan nan 0.00 0.16 0.18 0.12 0.11 0.03 0.02 0.06 0.45 0.03 0.00 0.18 0.11 0.15 0.03 0.06 0.72 0.16 0.60 0.41 0.14 0.13 0.04 0.06 0.30 0.80 0.21 0.27 0.07 0.10 0.38 0.25 0.25 0.26 0.18 0.29
nan nan nan nan nan nan nan nan nan nan nan 0.00 0.00 0.00 0.03 nan 0.03 0.38 0.22 0.06 0.06 0.05 0.02 0.03 0.29 0.32 0.29 0.02 0.05 0.06 0.05 0.06 0.23 0.31 0.38 0.97 0.81 0.84 0.79 0.08 0.21 0.77 0.24 0.12 0.19 0.21 0.36
nan nan nan nan nan nan nan nan nan nan nan 0.00 0.00 0.03 0.60 0.56 0.18 0.07 0.05 0.02 0.08 0.05 0.80 0.20 0.07 0.46 0.09 0.02 0.04 0.19 0.41 0.41 0.57 0.59 0.35 0.97 0.73 1.03 1.55 0.63 1.86 0.31 0.21 0.29 0.33 0.32 0.33
nan nan nan nan nan nan nan nan nan nan nan 0.00 0.00 0.04 0.70 1.22 0.17 0.07 0.07 0.08 0.05 0.13 0.30 0.21 0.05 0.08 0.03 0.21 0.77 0.53 0.25 0.33 0.30 0.23 0.45 0.56 1.22 2.29 1.84 0.70 0.24 0.22 0.27 0.32 0.48 0.38 0.51
nan nan nan nan nan nan nan nan nan nan nan 0.00 0.00 0.00 0.27 1.61 0.39 0.12 0.28 0.11 0.72 0.29 0.24 0.08 0.06 0.05 0.08 0.60 0.82 0.97 0.37 0.16 0.29 0.22 0.09 0.42 0.90 1.93 1.30 1.33 0.65 0.26 0.16 0.38 0.90 0.74 0.29
nan nan nan nan nan nan nan nan nan nan nan 0.00 0.00 0.00 0.10 1.96 0.52 0.21 0.74 0.82 0.37 0.51 0.84 0.15 0.21 0.32 0.19 0.84 1.13 0.99 0.67 0.36 0.84 0.21 0.14 0.38 0.84 1.10 0.72 1.87 0.95 0.29 0.19 0.37 1.52 0.70 0.24
nan nan nan nan nan nan nan nan nan nan nan 0.00 0.00 0.00 0.02 1.30 0.62 0.32 0.22 0.44 0.50 0.65 1.09 0.58 1.11 0.68 0.79 1.02 0.87 0.51 0.80 0.63 0.40 0.32 0.29 0.34 0.76 0.83 1.10 1.46 1.57 0.08 0.17 0.46 0.65 0.31 0.33
nan nan nan nan nan nan nan nan nan nan nan nan 0.00 0.00 0.00 0.49 1.12 0.11 0.22 0.25 0.41 0.56 0.65 0.91 0.65 0.56 1.10 1.12 0.81 1.04 0.73 0.35 0.22 0.57 0.10 0.74 0.60 0.77 0.64 0.72 0.70 0.46 0.46 0.42 0.36 0.25 0.22
SL_Ratio
nan nan nan nan nan nan nan nan nan nan nan nan nan nan nan nan nan nan nan nan nan nan nan nan nan nan nan nan nan nan nan nan nan nan nan nan nan nan nan nan nan nan nan nan nan nan nan
nan nan nan nan nan nan nan nan nan nan nan nan nan nan nan nan nan nan nan nan nan nan nan nan nan nan nan nan nan nan nan nan nan nan nan nan nan nan nan nan nan nan nan nan nan nan nan
nan nan nan nan nan nan nan nan nan nan nan nan nan nan nan nan nan nan nan nan nan nan nan nan nan nan nan nan nan nan nan nan nan nan nan nan nan nan nan nan nan nan nan nan nan nan nan
nan nan nan nan nan nan nan nan nan nan nan nan nan nan nan nan nan nan nan nan nan nan nan nan nan nan nan nan nan nan nan nan nan nan nan nan nan nan nan nan nan nan nan nan nan nan nan
nan nan nan nan nan nan nan nan nan nan nan nan nan nan nan nan nan nan nan nan nan nan nan nan nan nan nan nan nan nan nan nan nan nan nan nan nan nan nan nan nan nan nan nan nan nan nan
nan nan nan nan nan nan nan nan nan nan nan nan nan nan nan nan nan nan nan nan nan nan nan nan nan nan nan nan nan nan nan nan nan nan nan nan nan nan nan nan 2.5 nan nan nan nan nan nan
nan nan nan nan nan nan nan nan nan nan nan nan nan nan nan nan nan nan nan nan nan nan nan nan nan nan nan nan nan nan nan nan nan nan nan nan nan nan nan nan nan nan nan nan nan nan nan
nan nan nan nan nan nan nan nan nan nan nan nan nan nan nan nan nan nan nan nan nan nan nan nan nan nan nan nan nan nan nan nan nan nan nan nan 10.0 nan nan nan nan nan nan nan nan nan nan
nan nan nan nan nan nan nan nan nan nan nan nan nan nan nan nan nan nan nan nan nan nan nan nan nan nan nan nan nan nan nan nan nan nan nan nan nan nan nan nan nan nan nan nan nan nan nan
nan nan nan nan nan nan nan nan nan nan nan nan nan nan nan nan nan nan nan nan nan nan 6.7 nan nan nan nan nan nan nan nan nan nan nan nan nan nan nan 6.1 6.4 10.0 7.4 nan nan nan nan 3.7
nan nan nan nan nan nan nan nan nan nan nan nan nan nan nan nan nan nan nan nan nan nan 2.8 nan nan nan nan nan nan nan nan nan nan nan 6.1 6.7 6.7 6.9 6.6 6.7 6.7 6.9 nan 6.7 nan 5.0 3.0
nan nan nan nan nan nan nan nan nan nan nan nan nan nan nan nan nan nan nan nan nan 2.5 2.9 nan nan nan nan nan nan nan nan nan nan nan nan 5.7 nan 6.7 6.4 6.4 4.0 5.7 6.1 5.6 6.6 7.1 7.3
nan nan nan nan nan nan nan nan nan nan nan nan nan nan nan nan nan nan nan nan 2.5 2.6 nan nan 2.4 nan nan nan nan nan nan 0.0 7.0 3.8 9.2 nan nan nan 6.7 6.4 5.0 6.3 7.2 6.6 6.5 6.4 8.3
nan nan nan nan nan nan nan nan nan nan nan nan nan nan nan nan nan nan nan nan 2.7 nan 10.0 nan nan nan nan nan nan nan nan 5.0 5.5 6.3 6.7 5.2 2.7 nan 4.0 6.2 7.3 6.8 7.8 7.9 11.7 5.1 3.3
nan nan nan nan nan nan nan nan nan nan nan nan nan nan nan nan nan nan nan 2.5 3.4 8.6 10.0 nan nan nan nan nan 6.7 nan nan nan 6.6 6.7 8.7 8.2 7.8 nan nan 6.0 nan 6.5 6.6 6.6 9.0 7.5 6.6
nan nan nan nan nan nan nan nan nan nan nan nan nan nan nan nan nan nan nan nan 5.0 nan nan nan 8.0 5.0 8.9 10.0 9.0 10.0 nan nan 7.1 6.6 3.0 7.4 9.7 6.7 nan 0.0 6.0 6.2 5.8 7.7 6.8 10.2 11.8
nan nan nan nan nan nan nan nan nan nan nan nan nan 0.0 nan nan nan nan 3.9 3.8 nan nan nan 6.7 7.3 8.2 6.7 9.5 8.8 8.0 6.7 nan 6.5 6.4 6.3 7.1 8.8 7.9 10.0 5.9 6.4 6.5 7.4 7.5 6.8 7.4 9.7
nan nan nan nan nan nan nan nan nan nan nan nan 3.3 3.9 nan nan 3.3 2.9 3.3 nan nan nan nan nan nan 7.0 7.5 8.2 7.6 7.5 6.0 8.2 6.5 5.8 6.9 6.0 7.6 7.7 7.8 nan 6.3 7.7 7.8 7.8 9.3 10.1 9.6
nan nan nan nan nan nan nan nan nan nan nan nan 2.8 0.0 nan nan 4.0 3.5 nan nan nan nan nan 10.0 6.4 10.0 6.6 7.6 8.2 6.4 6.5 4.7 5.0 6.0 7.2 6.1 7.8 9.6 4.7 4.4 7.1 7.2 6.8 7.0 7.0 7.5 9.3
nan nan nan nan nan nan nan nan nan nan nan nan 3.3 5.4 nan nan nan 3.8 6.7 6.3 4.3 nan nan nan 4.5 6.7 6.4 5.1 6.6 7.3 6.1 5.6 6.2 0.0 nan nan 7.2 8.6 9.4 9.4 7.2 8.4 7.9 8.0 8.5 8.8 10.6
nan nan nan nan nan nan nan nan nan nan nan nan 3.2 5.8 6.2 3.7 3.4 4.5 3.9 3.7 4.3 4.6 nan nan 5.2 6.8 8.2 7.8 5.5 4.9 5.8 5.7 nan nan 6.4 6.2 8.3 7.3 7.7 9.3 10.1 11.8 9.6 9.5 10.6 13.7 11.3
nan nan nan nan nan nan nan nan nan nan nan nan 4.1 5.3 4.8 5.6 5.4 5.2 3.4 4.6 5.1 6.9 6.7 6.0 6.1 6.9 6.5 7.2 6.5 8.0 6.8 5.3 6.5 5.6 6.5 5.8 8.5 7.8 9.0 14.2 15.8 13.2 10.4 10.1 8.3 13.8 12.8
nan nan nan nan nan nan nan nan nan nan nan 3.3 nan 10.0 4.1 nan 5.6 5.6 4.4 6.7 7.0 7.3 6.2 7.1 7.2 5.8 5.2 5.7 5.9 5.0 4.8 5.0 7.2 7.7 7.8 7.4 7.9 8.7 9.8 13.5 10.4 11.1 15.1 15.5 13.9 13.5 13.5
nan nan nan nan nan nan nan nan nan nan nan nan nan 3.2 5.4 7.1 6.2 6.7 7.7 6.4 6.5 6.4 6.9 6.8 4.8 4.7 4.0 3.2 3.4 4.1 4.3 5.1 5.5 8.3 7.1 7.7 8.1 7.5 9.0 10.6 11.3 14.1 16.6 13.0 12.1 12.3 12.1
nan nan nan nan nan nan nan nan nan nan nan nan nan 2.7 4.0 7.2 6.3 5.8 6.9 7.1 5.2 6.1 5.8 4.6 4.2 4.0 3.2 3.9 6.4 7.2 6.8 7.4 8.4 7.0 7.0 6.0 7.3 8.9 10.2 11.6 14.6 14.7 14.5 13.7 13.3 12.9 12.6
nan nan nan nan nan nan nan nan nan nan nan nan nan nan 2.6 6.3 6.8 9.0 6.6 7.0 6.3 6.3 5.3 4.3 3.4 3.3 3.5 5.3 6.9 9.5 10.2 10.3 9.1 9.0 6.1 8.2 7.6 8.0 9.7 11.6 13.4 14.3 14.6 11.7 10.0 12.2 12.6
nan nan nan nan nan nan nan nan nan nan nan nan nan nan 4.9 5.6 5.9 7.0 6.6 7.3 5.9 5.6 6.1 5.1 5.1 5.3 3.9 6.9 8.7 9.7 9.7 8.5 11.0 10.4 10.7 9.8 9.5 10.2 10.4 10.9 12.7 13.0 14.3 12.2 12.1 13.7 13.8
nan nan nan nan nan nan nan nan nan nan nan nan 10.0 nan 3.3 3.7 5.7 7.0 6.4 5.6 4.6 4.7 7.4 5.9 7.1 6.3 6.4 8.2 8.1 7.8 8.8 8.9 9.7 10.8 11.0 10.4 11.1 10.7 10.5 10.8 11.3 13.7 11.7 13.8 14.0 13.0 12.9
nan nan nan nan nan nan nan nan nan nan nan nan 10.0 nan nan 3.4 4.9 5.5 5.5 5.4 6.1 6.3 6.1 4.6 6.4 7.7 6.8 7.6 7.8 7.9 8.7 9.2 10.9 12.1 12.8 12.8 13.5 13.3 13.3 13.7 12.3 13.3 14.8 14.2 13.7 15.1 15.6